Time,TemperatureF,DewpointF,PressureIn,WindDirection,WindDirectionDegrees,WindSpeedMPH,WindSpeedGustMPH,Humidity,HourlyPrecipIn,Conditions,Clouds,dailyrainin,SoftwareType,DateUTC
2017-06-22 00:05:00,80.7,74.0,30.10,ESE,113,4.0,-999.0,81,0.00,,,0.00,,2017-06-22 04:05:00,
2017-06-22 00:10:00,81.0,74.0,30.10,ESE,113,3.0,-999.0,81,0.00,,,0.00,,2017-06-22 04:10:00,
2017-06-22 00:16:00,81.0,74.0,30.10,ESE,113,4.0,-999.0,81,0.00,,,0.00,,2017-06-22 04:16:00,
2017-06-22 00:21:00,80.7,75.0,30.09,ESE,113,4.0,-999.0,83,0.00,,,0.00,,2017-06-22 04:21:00,
2017-06-22 00:27:00,80.5,75.0,30.09,East,90,4.0,-999.0,83,0.00,,,0.00,,2017-06-22 04:27:00,
2017-06-22 00:32:00,80.3,75.0,30.09,East,90,3.0,-999.0,83,0.00,,,0.00,,2017-06-22 04:32:00,
2017-06-22 00:37:00,80.3,75.0,30.09,ESE,113,2.0,-999.0,85,0.00,,,0.00,,2017-06-22 04:37:00,
2017-06-22 00:43:00,80.1,74.0,30.09,ESE,113,3.0,-999.0,83,0.00,,,0.00,,2017-06-22 04:43:00,
2017-06-22 00:48:00,80.1,74.0,30.10,ESE,113,8.0,-999.0,83,0.00,,,0.00,,2017-06-22 04:48:00,
2017-06-22 00:54:00,79.6,74.0,30.09,ESE,113,5.0,-999.0,83,0.00,,,0.00,,2017-06-22 04:54:00,
2017-06-22 01:00:00,79.4,74.0,30.09,ESE,113,5.0,-999.0,85,0.00,,,0.00,,2017-06-22 05:00:00,
2017-06-22 01:05:00,79.3,74.0,30.09,ESE,113,3.0,-999.0,86,0.00,,,0.00,,2017-06-22 05:05:00,
2017-06-22 01:10:00,79.3,74.0,30.09,NE,45,4.0,-999.0,86,0.00,,,0.00,,2017-06-22 05:10:00,
2017-06-22 01:16:00,79.1,75.0,30.09,ESE,113,3.0,-999.0,88,0.00,,,0.00,,2017-06-22 05:16:00,
2017-06-22 01:21:00,79.1,75.0,30.09,ESE,113,4.0,-999.0,88,0.00,,,0.00,,2017-06-22 05:21:00,
2017-06-22 01:27:00,79.0,75.0,30.09,ESE,113,4.0,-999.0,88,0.00,,,0.00,,2017-06-22 05:27:00,
2017-06-22 01:32:00,79.0,75.0,30.09,ENE,68,3.0,-999.0,88,0.00,,,0.00,,2017-06-22 05:32:00,
2017-06-22 01:38:00,78.8,75.0,30.08,East,90,2.0,-999.0,90,0.00,,,0.00,,2017-06-22 05:38:00,
2017-06-22 01:43:00,78.8,76.0,30.08,East,90,2.0,-999.0,91,0.00,,,0.00,,2017-06-22 05:43:00,
2017-06-22 01:49:00,78.8,76.0,30.07,East,90,3.0,-999.0,91,0.00,,,0.00,,2017-06-22 05:49:00,
2017-06-22 01:54:00,78.5,76.0,30.08,East,90,4.0,-999.0,91,0.00,,,0.00,,2017-06-22 05:54:00,
2017-06-22 02:00:00,78.4,75.0,30.07,NE,45,3.0,-999.0,91,0.00,,,0.00,,2017-06-22 06:00:00,
2017-06-22 02:06:00,78.5,76.0,30.07,ESE,113,5.0,-999.0,93,0.00,,,0.00,,2017-06-22 06:06:00,
2017-06-22 02:11:00,78.5,76.0,30.07,ESE,113,4.0,-999.0,93,0.00,,,0.00,,2017-06-22 06:11:00,
2017-06-22 02:17:00,78.5,76.0,30.07,ESE,113,4.0,-999.0,93,0.00,,,0.00,,2017-06-22 06:17:00,
2017-06-22 02:22:00,78.5,76.0,30.07,East,90,5.0,-999.0,93,0.00,,,0.00,,2017-06-22 06:22:00,
2017-06-22 02:28:00,78.5,76.0,30.07,ENE,68,4.0,-999.0,93,0.00,,,0.00,,2017-06-22 06:28:00,
2017-06-22 02:33:00,78.4,76.0,30.07,ESE,113,2.0,-999.0,93,0.00,,,0.00,,2017-06-22 06:33:00,
2017-06-22 02:39:00,78.4,76.0,30.07,East,90,3.0,-999.0,93,0.00,,,0.00,,2017-06-22 06:39:00,
2017-06-22 02:45:00,78.3,76.0,30.07,ESE,113,4.0,-999.0,93,0.00,,,0.00,,2017-06-22 06:45:00,
2017-06-22 02:50:00,78.3,76.0,30.07,East,90,5.0,-999.0,93,0.00,,,0.00,,2017-06-22 06:50:00,
2017-06-22 02:56:00,78.3,76.0,30.06,ESE,113,4.0,-999.0,93,0.00,,,0.00,,2017-06-22 06:56:00,
2017-06-22 03:01:00,78.3,76.0,30.07,ENE,68,4.0,-999.0,93,0.00,,,0.00,,2017-06-22 07:01:00,
2017-06-22 03:07:00,78.3,76.0,30.06,ESE,113,4.0,-999.0,93,0.00,,,0.00,,2017-06-22 07:07:00,
2017-06-22 03:12:00,78.3,76.0,30.06,ESE,113,5.0,-999.0,93,0.00,,,0.00,,2017-06-22 07:12:00,
2017-06-22 03:15:00,78.3,76.0,30.06,ESE,113,5.0,-999.0,93,0.00,,,0.00,,2017-06-22 07:15:00,
2017-06-22 03:21:00,78.3,76.0,30.05,ESE,113,4.0,-999.0,93,0.00,,,0.00,,2017-06-22 07:21:00,
2017-06-22 03:26:00,78.3,76.0,30.05,ESE,113,4.0,-999.0,93,0.00,,,0.00,,2017-06-22 07:26:00,
2017-06-22 03:32:00,78.3,76.0,30.06,SE,135,3.0,-999.0,93,0.00,,,0.00,,2017-06-22 07:32:00,
2017-06-22 03:34:00,78.3,76.0,30.05,ESE,113,3.0,-999.0,93,0.00,,,0.00,,2017-06-22 07:34:00,
2017-06-22 03:39:00,78.1,76.0,30.05,ESE,113,5.0,-999.0,93,0.00,,,0.00,,2017-06-22 07:39:00,
2017-06-22 03:45:00,77.8,76.0,30.05,ESE,113,4.0,-999.0,93,0.00,,,0.00,,2017-06-22 07:45:00,
2017-06-22 03:51:00,77.8,76.0,30.05,ESE,113,3.0,-999.0,93,0.00,,,0.00,,2017-06-22 07:51:00,
2017-06-22 03:56:00,77.8,76.0,30.05,SE,135,3.0,-999.0,93,0.00,,,0.00,,2017-06-22 07:56:00,
2017-06-22 04:02:00,77.8,76.0,30.05,ESE,113,4.0,-999.0,93,0.00,,,0.00,,2017-06-22 08:02:00,
2017-06-22 04:08:00,77.8,76.0,30.05,ESE,113,4.0,-999.0,93,0.00,,,0.00,,2017-06-22 08:08:00,
2017-06-22 04:13:00,77.8,76.0,30.05,ESE,113,4.0,-999.0,93,0.00,,,0.00,,2017-06-22 08:13:00,
2017-06-22 04:19:00,77.8,76.0,30.05,ESE,113,4.0,-999.0,93,0.00,,,0.00,,2017-06-22 08:19:00,
2017-06-22 04:24:00,77.8,76.0,30.05,ESE,113,5.0,-999.0,93,0.00,,,0.00,,2017-06-22 08:24:00,
2017-06-22 04:30:00,77.8,76.0,30.05,ESE,113,4.0,-999.0,93,0.00,,,0.00,,2017-06-22 08:30:00,
2017-06-22 04:35:00,77.8,76.0,30.05,ESE,113,6.0,-999.0,93,0.00,,,0.00,,2017-06-22 08:35:00,
2017-06-22 04:41:00,77.8,76.0,30.04,ESE,113,5.0,-999.0,93,0.00,,,0.00,,2017-06-22 08:41:00,
2017-06-22 04:46:00,77.8,76.0,30.04,East,90,5.0,-999.0,93,0.00,,,0.00,,2017-06-22 08:46:00,
2017-06-22 04:52:00,77.6,75.0,30.05,ESE,113,4.0,-999.0,93,0.00,,,0.00,,2017-06-22 08:52:00,
2017-06-22 04:58:00,77.6,75.0,30.05,ESE,113,4.0,-999.0,93,0.00,,,0.00,,2017-06-22 08:58:00,
2017-06-22 05:03:00,77.6,75.0,30.04,ESE,113,5.0,-999.0,93,0.00,,,0.00,,2017-06-22 09:03:00,
2017-06-22 05:09:00,77.5,75.0,30.04,ESE,113,4.0,-999.0,93,0.00,,,0.00,,2017-06-22 09:09:00,
2017-06-22 05:14:00,77.5,75.0,30.04,ESE,113,4.0,-999.0,93,0.00,,,0.00,,2017-06-22 09:14:00,
2017-06-22 05:20:00,77.5,75.0,30.05,ESE,113,3.0,-999.0,93,0.00,,,0.00,,2017-06-22 09:20:00,
2017-06-22 05:26:00,77.5,75.0,30.05,ESE,113,5.0,-999.0,93,0.00,,,0.00,,2017-06-22 09:26:00,
2017-06-22 05:31:00,77.5,75.0,30.05,ESE,113,3.0,-999.0,93,0.00,,,0.00,,2017-06-22 09:31:00,
2017-06-22 05:37:00,77.5,75.0,30.06,ESE,113,2.0,-999.0,93,0.00,,,0.00,,2017-06-22 09:37:00,
2017-06-22 05:42:00,77.5,75.0,30.05,ESE,113,5.0,-999.0,93,0.00,,,0.00,,2017-06-22 09:42:00,
2017-06-22 05:43:00,77.5,75.0,30.05,SE,135,4.0,-999.0,93,0.00,,,0.00,,2017-06-22 09:43:00,
2017-06-22 05:49:00,77.5,75.0,30.05,ESE,113,3.0,-999.0,93,0.00,,,0.00,,2017-06-22 09:49:00,
2017-06-22 05:54:00,77.5,75.0,30.06,ESE,113,4.0,-999.0,93,0.00,,,0.00,,2017-06-22 09:54:00,
2017-06-22 05:57:00,77.5,75.0,30.05,ESE,113,2.0,-999.0,93,0.00,,,0.00,,2017-06-22 09:57:00,
2017-06-22 06:02:00,77.5,75.0,30.05,ESE,113,3.0,-999.0,93,0.00,,,0.00,,2017-06-22 10:02:00,
2017-06-22 06:08:00,77.5,75.0,30.06,ESE,113,5.0,-999.0,93,0.00,,,0.00,,2017-06-22 10:08:00,
2017-06-22 06:14:00,77.5,75.0,30.05,ESE,113,5.0,-999.0,93,0.00,,,0.00,,2017-06-22 10:14:00,
2017-06-22 06:19:00,77.5,75.0,30.05,SE,135,5.0,-999.0,93,0.00,,,0.00,,2017-06-22 10:19:00,
2017-06-22 06:25:00,77.6,75.0,30.05,SE,135,4.0,-999.0,93,0.00,,,0.00,,2017-06-22 10:25:00,
2017-06-22 06:30:00,77.6,75.0,30.05,ESE,113,4.0,-999.0,93,0.00,,,0.00,,2017-06-22 10:30:00,
2017-06-22 06:36:00,77.6,75.0,30.05,ESE,113,3.0,-999.0,93,0.00,,,0.00,,2017-06-22 10:36:00,
2017-06-22 06:42:00,77.6,75.0,30.05,ESE,113,4.0,-999.0,93,0.00,,,0.00,,2017-06-22 10:42:00,
2017-06-22 06:47:00,77.6,75.0,30.05,ESE,113,4.0,-999.0,93,0.00,,,0.00,,2017-06-22 10:47:00,
2017-06-22 06:53:00,78.1,76.0,30.06,SE,135,5.0,-999.0,93,0.00,,,0.00,,2017-06-22 10:53:00,
2017-06-22 06:59:00,78.1,76.0,30.05,ESE,113,5.0,-999.0,93,0.00,,,0.00,,2017-06-22 10:59:00,
2017-06-22 07:04:00,78.4,76.0,30.05,South,180,3.0,-999.0,93,0.00,,,0.00,,2017-06-22 11:04:00,
2017-06-22 07:10:00,78.5,76.0,30.05,ESE,113,4.0,-999.0,93,0.00,,,0.00,,2017-06-22 11:10:00,
2017-06-22 07:15:00,79.0,77.0,30.06,ESE,113,5.0,-999.0,93,0.00,,,0.00,,2017-06-22 11:15:00,
2017-06-22 07:21:00,79.4,77.0,30.06,SE,135,4.0,-999.0,93,0.00,,,0.00,,2017-06-22 11:21:00,
2017-06-22 07:26:00,80.1,77.0,30.05,SSE,158,6.0,-999.0,93,0.00,,,0.00,,2017-06-22 11:26:00,
2017-06-22 07:32:00,80.1,77.0,30.06,WSW,248,5.0,-999.0,93,0.00,,,0.00,,2017-06-22 11:32:00,
2017-06-22 07:38:00,80.7,78.0,30.06,SE,135,5.0,-999.0,91,0.00,,,0.00,,2017-06-22 11:38:00,
2017-06-22 07:43:00,81.0,78.0,30.06,ESE,113,4.0,-999.0,91,0.00,,,0.00,,2017-06-22 11:43:00,
2017-06-22 07:49:00,81.3,78.0,30.07,ESE,113,4.0,-999.0,91,0.00,,,0.00,,2017-06-22 11:49:00,
2017-06-22 07:54:00,81.0,78.0,30.07,ESE,113,6.0,-999.0,91,0.00,,,0.00,,2017-06-22 11:54:00,
2017-06-22 08:00:00,81.4,78.0,30.07,ESE,113,6.0,-999.0,91,0.00,,,0.00,,2017-06-22 12:00:00,
2017-06-22 08:05:00,81.9,79.0,30.07,ESE,113,5.0,-999.0,91,0.00,,,0.00,,2017-06-22 12:05:00,
2017-06-22 08:10:00,82.1,78.0,30.07,ESE,113,6.0,-999.0,90,0.00,,,0.00,,2017-06-22 12:10:00,
2017-06-22 08:15:00,81.9,79.0,30.08,South,180,5.0,-999.0,91,0.00,,,0.00,,2017-06-22 12:15:00,
2017-06-22 08:21:00,81.4,78.0,30.07,SSE,158,6.0,-999.0,91,0.00,,,0.00,,2017-06-22 12:21:00,
2017-06-22 08:26:00,81.9,79.0,30.07,SE,135,5.0,-999.0,91,0.00,,,0.00,,2017-06-22 12:26:00,
2017-06-22 08:32:00,81.9,79.0,30.08,ESE,113,9.0,-999.0,91,0.00,,,0.00,,2017-06-22 12:32:00,
2017-06-22 08:37:00,82.6,79.0,30.08,SSE,158,9.0,-999.0,90,0.00,,,0.00,,2017-06-22 12:37:00,
2017-06-22 08:43:00,83.5,79.0,30.08,ESE,113,6.0,-999.0,88,0.00,,,0.00,,2017-06-22 12:43:00,
2017-06-22 08:48:00,83.2,79.0,30.08,SE,135,6.0,-999.0,88,0.00,,,0.00,,2017-06-22 12:48:00,
2017-06-22 08:54:00,82.8,78.0,30.08,SE,135,8.0,-999.0,88,0.00,,,0.00,,2017-06-22 12:54:00,
2017-06-22 08:59:00,82.8,79.0,30.08,ESE,113,9.0,-999.0,88,0.00,,,0.00,,2017-06-22 12:59:00,
2017-06-22 09:05:00,83.0,79.0,30.08,SSE,158,6.0,-999.0,88,0.00,,,0.00,,2017-06-22 13:05:00,
2017-06-22 09:10:00,84.6,80.0,30.08,ESE,113,6.0,-999.0,86,0.00,,,0.00,,2017-06-22 13:10:00,
2017-06-22 09:16:00,85.5,79.0,30.08,SE,135,8.0,-999.0,83,0.00,,,0.00,,2017-06-22 13:16:00,
2017-06-22 09:21:00,85.5,80.0,30.08,SE,135,8.0,-999.0,83,0.00,,,0.00,,2017-06-22 13:21:00,
2017-06-22 09:27:00,86.4,79.0,30.09,ESE,113,5.0,-999.0,81,0.00,,,0.00,,2017-06-22 13:27:00,
2017-06-22 09:32:00,87.3,79.0,30.08,SSE,158,5.0,-999.0,79,0.00,,,0.00,,2017-06-22 13:32:00,
2017-06-22 09:38:00,86.4,79.0,30.08,SE,135,8.0,-999.0,81,0.00,,,0.00,,2017-06-22 13:38:00,
2017-06-22 09:43:00,86.4,79.0,30.09,ESE,113,7.0,-999.0,81,0.00,,,0.00,,2017-06-22 13:43:00,
2017-06-22 09:49:00,86.7,79.0,30.08,ESE,113,8.0,-999.0,78,0.00,,,0.00,,2017-06-22 13:49:00,
2017-06-22 09:55:00,87.1,79.0,30.09,SSE,158,7.0,-999.0,78,0.00,,,0.00,,2017-06-22 13:55:00,
2017-06-22 10:01:00,87.1,79.0,30.09,ESE,113,6.0,-999.0,78,0.00,,,0.00,,2017-06-22 14:01:00,
2017-06-22 10:06:00,87.3,78.0,30.09,East,90,5.0,-999.0,75,0.00,,,0.00,,2017-06-22 14:06:00,
2017-06-22 10:12:00,86.9,79.0,30.09,SSE,158,7.0,-999.0,78,0.00,,,0.00,,2017-06-22 14:12:00,
2017-06-22 10:17:00,86.4,78.0,30.09,SE,135,5.0,-999.0,78,0.00,,,0.00,,2017-06-22 14:17:00,
2017-06-22 10:23:00,86.0,78.0,30.09,ESE,113,6.0,-999.0,79,0.00,,,0.00,,2017-06-22 14:23:00,
2017-06-22 10:28:00,86.4,79.0,30.09,SE,135,6.0,-999.0,79,0.00,,,0.00,,2017-06-22 14:28:00,
2017-06-22 10:33:00,87.3,79.0,30.09,SSE,158,7.0,-999.0,78,0.00,,,0.00,,2017-06-22 14:33:00,
2017-06-22 10:39:00,89.2,79.0,30.09,SE,135,6.0,-999.0,73,0.00,,,0.00,,2017-06-22 14:39:00,
2017-06-22 10:44:00,89.2,79.0,30.08,SSW,203,4.0,-999.0,74,0.00,,,0.00,,2017-06-22 14:44:00,
2017-06-22 10:50:00,89.2,79.0,30.09,SE,135,4.0,-999.0,74,0.00,,,0.00,,2017-06-22 14:50:00,
2017-06-22 10:56:00,89.8,78.0,30.09,ESE,113,7.0,-999.0,70,0.00,,,0.00,,2017-06-22 14:56:00,
2017-06-22 11:01:00,89.4,79.0,30.09,ESE,113,7.0,-999.0,71,0.00,,,0.00,,2017-06-22 15:01:00,
2017-06-22 11:07:00,90.3,80.0,30.09,ESE,113,4.0,-999.0,71,0.00,,,0.00,,2017-06-22 15:07:00,
2017-06-22 11:12:00,91.0,80.0,30.09,SW,225,3.0,-999.0,70,0.00,,,0.00,,2017-06-22 15:12:00,
2017-06-22 11:18:00,92.1,80.0,30.09,SE,135,4.0,-999.0,68,0.00,,,0.00,,2017-06-22 15:18:00,
2017-06-22 11:23:00,91.5,79.0,30.09,SSE,158,8.0,-999.0,66,0.00,,,0.00,,2017-06-22 15:23:00,
2017-06-22 11:29:00,91.9,79.0,30.09,ENE,68,4.0,-999.0,68,0.00,,,0.00,,2017-06-22 15:29:00,
2017-06-22 11:32:00,91.8,79.0,30.10,WSW,248,1.0,-999.0,66,0.00,,,0.00,,2017-06-22 15:32:00,
2017-06-22 11:38:00,92.8,79.0,30.09,SSW,203,4.0,-999.0,65,0.00,,,0.00,,2017-06-22 15:38:00,
2017-06-22 11:43:00,92.1,78.0,30.09,ESE,113,6.0,-999.0,65,0.00,,,0.00,,2017-06-22 15:43:00,
2017-06-22 11:49:00,91.8,78.0,30.09,SE,135,5.0,-999.0,65,0.00,,,0.00,,2017-06-22 15:49:00,
2017-06-22 11:54:00,92.8,78.0,30.09,SW,225,4.0,-999.0,63,0.00,,,0.00,,2017-06-22 15:54:00,
2017-06-22 11:59:00,92.8,78.0,30.08,ESE,113,5.0,-999.0,63,0.00,,,0.00,,2017-06-22 15:59:00,
2017-06-22 12:05:00,92.5,78.0,30.08,ESE,113,10.0,-999.0,63,0.00,,,0.00,,2017-06-22 16:05:00,
2017-06-22 12:10:00,92.1,78.0,30.08,ESE,113,3.0,-999.0,63,0.00,,,0.00,,2017-06-22 16:10:00,
2017-06-22 12:21:00,93.0,79.0,30.08,West,270,2.0,-999.0,63,0.00,,,0.00,,2017-06-22 16:21:00,
2017-06-22 12:27:00,93.5,78.0,30.08,SE,135,6.0,-999.0,61,0.00,,,0.00,,2017-06-22 16:27:00,
2017-06-22 12:33:00,95.1,78.0,30.07,SE,135,4.0,-999.0,59,0.00,,,0.00,,2017-06-22 16:33:00,
2017-06-22 12:38:00,95.9,78.0,30.07,ESE,113,6.0,-999.0,56,0.00,,,0.00,,2017-06-22 16:38:00,
2017-06-22 12:43:00,94.8,78.0,30.07,ESE,113,4.0,-999.0,59,0.00,,,0.00,,2017-06-22 16:43:00,
2017-06-22 12:49:00,94.8,76.0,30.07,SSE,158,8.0,-999.0,55,0.00,,,0.00,,2017-06-22 16:49:00,
2017-06-22 12:54:00,95.5,77.0,30.07,ESE,113,6.0,-999.0,55,0.00,,,0.00,,2017-06-22 16:54:00,
2017-06-22 12:59:00,94.6,77.0,30.07,SE,135,7.0,-999.0,58,0.00,,,0.00,,2017-06-22 16:59:00,
2017-06-22 13:05:00,95.0,77.0,30.07,ESE,113,6.0,-999.0,56,0.00,,,0.00,,2017-06-22 17:05:00,
2017-06-22 13:10:00,94.0,77.0,30.06,SE,135,6.0,-999.0,58,0.00,,,0.00,,2017-06-22 17:10:00,
2017-06-22 13:16:00,94.4,77.0,30.06,SSE,158,3.0,-999.0,59,0.00,,,0.00,,2017-06-22 17:16:00,
2017-06-22 13:21:00,95.6,78.0,30.06,SSE,158,8.0,-999.0,56,0.00,,,0.00,,2017-06-22 17:21:00,
2017-06-22 13:27:00,95.9,77.0,30.06,ESE,113,8.0,-999.0,55,0.00,,,0.00,,2017-06-22 17:27:00,
2017-06-22 13:32:00,96.5,78.0,30.05,ESE,113,5.0,-999.0,55,0.00,,,0.00,,2017-06-22 17:32:00,
2017-06-22 13:38:00,96.0,77.0,30.05,ESE,113,7.0,-999.0,55,0.00,,,0.00,,2017-06-22 17:38:00,
2017-06-22 13:43:00,95.6,78.0,30.05,SSE,158,3.0,-999.0,56,0.00,,,0.00,,2017-06-22 17:43:00,
2017-06-22 13:49:00,94.8,77.0,30.04,ESE,113,9.0,-999.0,58,0.00,,,0.00,,2017-06-22 17:49:00,
2017-06-22 13:55:00,94.6,77.0,30.05,ESE,113,7.0,-999.0,56,0.00,,,0.00,,2017-06-22 17:55:00,
2017-06-22 14:00:00,92.5,77.0,30.05,SW,225,2.0,-999.0,61,0.00,,,0.00,,2017-06-22 18:00:00,
2017-06-22 14:05:00,93.6,77.0,30.05,ESE,113,6.0,-999.0,59,0.00,,,0.00,,2017-06-22 18:05:00,
2017-06-22 14:12:00,94.8,76.0,30.04,ESE,113,6.0,-999.0,55,0.00,,,0.00,,2017-06-22 18:12:00,
2017-06-22 14:17:00,94.8,76.0,30.04,ESE,113,9.0,-999.0,55,0.00,,,0.00,,2017-06-22 18:17:00,
2017-06-22 14:23:00,94.8,76.0,30.04,NNE,23,2.0,-999.0,55,0.00,,,0.00,,2017-06-22 18:23:00,
2017-06-22 14:28:00,94.8,77.0,30.04,ESE,113,5.0,-999.0,56,0.00,,,0.00,,2017-06-22 18:28:00,
2017-06-22 14:33:00,94.3,76.0,30.03,ESE,113,8.0,-999.0,55,0.00,,,0.00,,2017-06-22 18:33:00,
2017-06-22 14:39:00,95.1,76.0,30.03,ESE,113,3.0,-999.0,55,0.00,,,0.00,,2017-06-22 18:39:00,
2017-06-22 14:45:00,95.9,76.0,30.03,West,270,5.0,-999.0,53,0.00,,,0.00,,2017-06-22 18:45:00,
2017-06-22 14:51:00,98.5,78.0,30.03,SSE,158,2.0,-999.0,53,0.00,,,0.00,,2017-06-22 18:51:00,
2017-06-22 14:56:00,97.6,77.0,30.03,ESE,113,2.0,-999.0,53,0.00,,,0.00,,2017-06-22 18:56:00,
2017-06-22 15:02:00,95.5,76.0,30.03,ESE,113,4.0,-999.0,54,0.00,,,0.00,,2017-06-22 19:02:00,
2017-06-22 15:08:00,95.0,76.0,30.02,ESE,113,4.0,-999.0,55,0.00,,,0.00,,2017-06-22 19:08:00,
2017-06-22 15:13:00,95.0,77.0,30.03,SSE,158,3.0,-999.0,56,0.00,,,0.00,,2017-06-22 19:13:00,
2017-06-22 15:19:00,96.0,76.0,30.03,NE,45,3.0,-999.0,54,0.00,,,0.00,,2017-06-22 19:19:00,
2017-06-22 15:24:00,95.6,76.0,30.03,East,90,2.0,-999.0,54,0.00,,,0.00,,2017-06-22 19:24:00,
2017-06-22 15:30:00,95.9,77.0,30.02,East,90,3.0,-999.0,55,0.00,,,0.00,,2017-06-22 19:30:00,
2017-06-22 15:35:00,95.1,76.0,30.03,ESE,113,4.0,-999.0,55,0.00,,,0.00,,2017-06-22 19:35:00,
2017-06-22 15:40:00,94.8,76.0,30.02,SE,135,4.0,-999.0,55,0.00,,,0.00,,2017-06-22 19:40:00,
2017-06-22 15:46:00,94.6,75.0,30.02,ESE,113,4.0,-999.0,55,0.00,,,0.00,,2017-06-22 19:46:00,
2017-06-22 15:51:00,95.6,76.0,30.02,ESE,113,3.0,-999.0,54,0.00,,,0.00,,2017-06-22 19:51:00,
2017-06-22 15:57:00,94.8,76.0,30.02,East,90,4.0,-999.0,55,0.00,,,0.00,,2017-06-22 19:57:00,
2017-06-22 16:04:00,94.0,76.0,30.02,ESE,113,5.0,-999.0,55,0.00,,,0.00,,2017-06-22 20:04:00,
2017-06-22 16:09:00,93.6,75.0,30.02,ESE,113,4.0,-999.0,55,0.00,,,0.00,,2017-06-22 20:09:00,
2017-06-22 16:14:00,93.6,76.0,30.02,SE,135,3.0,-999.0,58,0.00,,,0.00,,2017-06-22 20:14:00,
2017-06-22 16:20:00,93.9,76.0,30.02,ESE,113,3.0,-999.0,58,0.00,,,0.00,,2017-06-22 20:20:00,
2017-06-22 16:25:00,93.9,76.0,30.02,SE,135,4.0,-999.0,56,0.00,,,0.00,,2017-06-22 20:25:00,
2017-06-22 16:31:00,93.5,76.0,30.02,ESE,113,5.0,-999.0,56,0.00,,,0.00,,2017-06-22 20:31:00,
2017-06-22 16:36:00,94.6,75.0,30.01,ESE,113,5.0,-999.0,55,0.00,,,0.00,,2017-06-22 20:36:00,
2017-06-22 16:42:00,94.4,75.0,30.01,East,90,4.0,-999.0,55,0.00,,,0.00,,2017-06-22 20:42:00,
2017-06-22 16:47:00,96.3,76.0,30.01,ESE,113,5.0,-999.0,54,0.00,,,0.00,,2017-06-22 20:47:00,
2017-06-22 16:53:00,95.5,77.0,30.01,ESE,113,12.0,-999.0,55,0.00,,,0.00,,2017-06-22 20:53:00,
2017-06-22 16:58:00,93.6,77.0,30.01,ESE,113,13.0,-999.0,59,0.00,,,0.00,,2017-06-22 20:58:00,
2017-06-22 17:04:00,92.5,77.0,30.01,ESE,113,10.0,-999.0,61,0.00,,,0.00,,2017-06-22 21:04:00,
2017-06-22 17:10:00,93.0,77.0,30.00,SE,135,9.0,-999.0,61,0.00,,,0.00,,2017-06-22 21:10:00,
2017-06-22 17:15:00,92.8,76.0,30.01,ESE,113,8.0,-999.0,60,0.00,,,0.00,,2017-06-22 21:15:00,
2017-06-22 17:21:00,93.1,77.0,30.00,ESE,113,9.0,-999.0,60,0.00,,,0.00,,2017-06-22 21:21:00,
2017-06-22 17:22:00,93.1,77.0,30.01,ENE,68,8.0,-999.0,60,0.00,,,0.00,,2017-06-22 21:22:00,
2017-06-22 17:27:00,92.1,77.0,30.01,SE,135,10.0,-999.0,63,0.00,,,0.00,,2017-06-22 21:27:00,
2017-06-22 17:33:00,91.5,76.0,30.00,ESE,113,12.0,-999.0,61,0.00,,,0.00,,2017-06-22 21:33:00,
2017-06-22 17:38:00,91.1,77.0,30.01,ESE,113,8.0,-999.0,63,0.00,,,0.00,,2017-06-22 21:38:00,
2017-06-22 17:43:00,91.0,77.0,30.00,ESE,113,9.0,-999.0,63,0.00,,,0.00,,2017-06-22 21:43:00,
2017-06-22 17:49:00,91.1,76.0,30.01,ESE,113,10.0,-999.0,63,0.00,,,0.00,,2017-06-22 21:49:00,
2017-06-22 17:55:00,90.1,78.0,30.01,SSE,158,5.0,-999.0,68,0.00,,,0.00,,2017-06-22 21:55:00,
2017-06-22 18:01:00,90.3,77.0,30.01,SSE,158,5.0,-999.0,66,0.00,,,0.00,,2017-06-22 22:01:00,
2017-06-22 18:06:00,90.0,78.0,30.01,SE,135,3.0,-999.0,68,0.00,,,0.00,,2017-06-22 22:06:00,